www.pogodaiklimat.ru

Погода и климат >> Архив погоды >> Россия >> Якутия >> Сеген-Кюель


АРХИВ ПОГОДЫ в Сеген-Кюеле

Время (UTC), дата Ветер
(напр.,м/с)
 
Видим.   Явления Облачность Т
(С)
Тd
(С)
f
(%)
Тe
(С)
Тes
(С)
Комфортность P
(гПа)
Po
(гПа)
Тmin
(С)
Tmax
(С)
R
(мм)
R24
(мм)
S
(см)
12 11.06 ЮВ 2 50 км ясно +19.3 +4.3 37 +20 +20 1004.6 980.5 +22.3
15 11.06 З 1 50 км 1/0
[Ac trans]
+7.9 +5.9 87 +7 +7 1005.9 980.9
18 11.06 З 1 50 км 1/0
[Ac trans]
+4.6 +3.1 90 +3 +3 1006.3 980.9
21 11.06 штиль 0 50 км 3/0
[Ac trans Ci fib]
+11.1 +6.2 72 +11 +13 1005.7 980.9
00 12.06 В 3 50 км 8/0
[Ci fib]
+19.7 +5.5 39 +21 +26 комфорт 1004.5 980.5 +4.1
03 12.06 ЮВ 5 50 км пыльный позёмок 8/0
[Ci fib]
+22.5 +5.7 34 +23 +29 комфорт 1003.2 979.4
06 12.06 ЮВ 4 50 км {метель} 8/0
[Ci fib]
+23.5 +3.4 27 +23 +29 комфорт 1002.1 978.3
09 12.06 Ю 3 50 км 4/0
[Ci fib]
+23.2 +2.8 26 +23 +25 комфорт 1001.7 977.9
12 12.06 ЮВ 2 50 км 3/0
[Ci fib]
+20.6 +4.3 34 +22 +22 комфорт 1002.9 979.0 +24.0
15 12.06 З 1 50 км 3/0
[Ci fib]
+9.0 +5.5 79 +8 +8 1005.2 980.3
18 12.06 З 1 50 км 4/0
[Ac trans Ci fib]
+7.3 +4.3 81 +6 +7 1006.3 981.2
21 12.06 штиль 0 50 км 4/0
[Ac trans Ci fib]
+14.7 +7.0 60 +15 +17 1006.7 982.3
00 13.06 ЮВ 4 50 км 3/0
[Ci fib]
+19.2 +6.2 43 +20 +25 1007.2 983.0 +7.1
03 13.06 Ю 4
{10}
50 км 10/4 1000 м
[Cu hum Ac trans Ci fib]
+21.1 +3.3 31 +21 +24 комфорт 1008.0 984.0
06 13.06 З 3 50 км 8/4 1000 м
[Cu hum Ac trans Ci fib]
+20.0 +7.8 45 +21 +25 комфорт 1007.1 983.0
09 13.06 ЮЗ 2 50 км 10/4 1000 м
[Sc Ac trans Ci fib]
+17.4 +8.2 55 +18 +19 1009.1 984.8
12 13.06 ЮЗ 2 50 км 10/3 1000 м
[Sc Ac trans Ci fib]
+10.7 +7.1 78 +9 +10 1011.2 986.3 +22.0
15 13.06 Ю 1 50 км 10/4 1000 м
[Cb cap Ac trans Ci fib]
+5.9 +5.0 94 +5 +5 1012.6 987.3
18 13.06 штиль 0 10 км туман на расстоянии 10/3 1000 м
[Sc Ac trans Ci fib]
+2.6 +2.6 100 +1 +1 1014.2 988.4
21 13.06 штиль 0 50 км 10/10 600 м
[Cb cap]
+5.6 +4.9 95 +4 +4 1015.0 989.5
00 14.06 Ю 1 50 км {ливн. осадки} 9/8 600 м
[Cb cap Ci fib]
+9.4 +7.3 87 +9 +11 1015.3 990.2 +2.4 0.4
03 14.06 Ю 1 50 км 9/9 1000 м
[Cb cap]
+12.9 +6.7 66 +13 +15 1015.3 990.5
06 14.06 Ю 1 50 км 8/3 1000 м
[Sc Ac trans]
+16.5 +2.6 39 +17 +22 1013.9 989.3
09 14.06 З 2 50 км 3/0
[Ac trans]
+18.6 +0.2 29 +19 +22 1013.1 988.7
12 14.06 ЮЗ 1 50 км 3/1 1000 м
[Sc Ci fib]
+16.3 +1.0 35 +17 +17 1013.1 988.5 +19.5
15 14.06 штиль 0 50 км 3/0
[Ac trans]
+5.5 +3.1 85 +5 +5 1014.5 988.9
18 14.06 штиль 0 50 км 3/0
[Ac trans Ci fib]
+1.8 +1.0 94 +1 +1 1015.0 989.2
21 14.06 штиль 0 50 км 6/0
[Ac trans]
+10.9 +3.7 61 +11 +13 1014.3 989.3
00 15.06 В 1 50 км 8/1 1000 м
[Sc Ac trans]
+16.5 +3.6 42 +17 +22 1013.7 989.1 +1.4
03 15.06 З 1 50 км 8/8 1000 м
[Sc diur, vesp Ac trans]
+20.3 +5.6 38 +22 +25 комфорт 1011.8 987.6
06 15.06 50 км н/о +22.8 +6.4 35 +23 +27 комфорт 1010.2 986.3
09 15.06 Ю 2 50 км 4/4 1000 м
[Cb cap]
+22.0 +5.1 33 +22 +24 комфорт 1009.7 985.7
12 15.06 штиль 0 50 км ясно +18.0 +8.8 55 +18 +18 1010.6 986.3 +23.7
15 15.06 штиль 0 50 км ясно +8.3 +6.8 90 +7 +7 1011.8 986.6
18 15.06 штиль 0 50 км ясно +3.4 +2.9 97 +2 +2 1012.9 987.3
21 15.06 З 1 50 км ясно +11.5 +7.6 77 +11 +14 1012.8 987.9
00 16.06 В 1 50 км ясно +19.7 +8.6 49 +22 +32 комфорт 1012.8 988.6 +3.3
03 16.06 ЮВ 2 50 км 1/1 1000 м
[Cu hum]
+23.4 +11.1 46 +26 +37 жарко 1011.7 987.8
06 16.06 ЮВ 2 50 км 1/1 1000 м
[Cu hum]
+25.0 +10.3 40 +26 +35 жарко 1010.4 986.8
09 16.06 ЮЗ 2 50 км 8/0
[Ci fib]
+26.0 +8.0 32 +26 +29 жарко 1009.3 985.7
12 16.06 Ю 1 50 км 4/1 1000 м
[Sc Ci fib]
+21.8 +7.3 39 +23 +23 комфорт 1010.2 986.2 +26.4
15 16.06 штиль 0 50 км 3/0
[Ac trans Ci fib]
+12.2 +9.4 83 +12 +12 1011.9 987.2
18 16.06 штиль 0 50 км 8/8 1000 м
[Sc]
+7.1 +6.2 94 +6 +6 1012.6 987.3
21 16.06 штиль 0 50 км 8/0
[Ci fib]
+15.0 +9.6 70 +15 +18 1011.0 986.5
00 17.06 СЗ 1 50 км 8/3 1000 м
[Sc Ci fib]
+22.2 +7.1 38 +23 +29 комфорт 1009.3 985.3 +6.9
03 17.06 СВ 3 50 км 10/0
[Cs]
+26.2 +6.0 27 +26 +34 жарко 1007.8 984.2
06 17.06 СВ 2 20 км дым 10/1 1000 м
[Sc Cs]
+28.3 +3.9 21 +27 +34 жарко 1006.3 982.8
09 17.06 СВ 2 10 км дым 8/0
[Ci fib]
+28.6 +5.1 22 +27 +30 жарко 1005.7 982.4
12 17.06 С 1 10 км дым ясно +25.2 +6.1 29 +25 +25 комфорт 1007.0 983.3 +29.1
15 17.06 С 3 50 км 8/0
[Ac trans Ci fib]
+23.0 +5.3 32 +23 +23 комфорт 1007.9 984.0
18 17.06 С 4 50 км 8/0
[Ac trans Ci fib]
+20.5 +5.9 39 +21 +21 комфорт 1008.8 984.8
21 17.06 СВ 5 50 км 3/0
[Ci fib]
+19.4 +6.2 42 +20 +21 1009.2 985.1
00 18.06 С 5 50 км ясно +22.0 +6.3 36 +23 +27 комфорт 1008.5 984.5 +17.6
03 18.06 С 4 50 км 3/0
[Ci fib]
+25.6 +4.9 26 +25 +33 комфорт 1007.4 983.8
06 18.06 С 3 50 км 3/1 1000 м
[Cu hum Ci fib]
+28.2 +2.2 19 +26 +33 жарко 1005.4 982.0
09 18.06 С 4 50 км 3/1 1000 м
[Cu hum Ci fib]
+27.5 +0.6 17 +25 +27 комфорт 1004.8 981.4

 

Местоположение метеостанции Сеген-Кюель (Якутия, Россия): широта 64.00 долгота 130.30 высота над уровнем моря 208 м.

В архиве по умолчанию представлена погода в Сеген-Кюеле за последнюю неделю. Архивные данные за месяц целиком и за предыдущие месяцы, начиная с января 2011 года, Вы можете получить, выбрав интересующий диапазон дат из раскрывающегося списка и нажав кнопку "Ввод!".


*Определитесь, кто Вы:
робот инопланетянин человек

Внимание! Время в таблицах - всемирное. Для получения местного времени необходимо прибавить поправку, которая равна 9 ч.

Смотрите также архив погоды в соседних городах и на ближайших метеорологических станциях:

Погода в Батамае (Якутия, Россия) (69 км)
Погода в Верхоянском Перевозе (Якутия, Россия) (113 км)
Погода в Сангаре (Якутия, Россия) (142 км)
Погода в Себян-Кюеле (Якутия, Россия) (145 км)
Погода в Намцах (Якутия, Россия) (147 км)
Погода в Сого-Хае (Якутия, Россия) (192 км)
Погода в Якутске (Якутия, Россия) (225 км)
Погода в Ытык-Кюёле (Якутия, Россия) (242 км)
Погода в Крест-Хальджае (Якутия, Россия) (243 км)
Погода в Чурапче (Якутия, Россия) (248 км)

Пояснения к столбцам:

Ветер - указаны скорость ветра в м/с - средняя за 10 мин, порывы в срок и между сроками (в фигурных скобках) и направление, откуда дует ветер: С - северный, СВ - северо-восточный, В - восточный, ЮВ - юго-восточный, Ю - южный, ЮЗ - юго-западный, З - западный, СЗ - северо-западный.
Видимость - горизонтальная дальность видимости в метрах или километрах. При видимости от 1 до 10 км при отсутствии осадков обычно наблюдается дымка, при ухудшении видимости до 1 км и менее - туман. В сухую погоду видимость может ухудшаться дымом, пылью или мглою.
Явления - указаны атмосферные явления, наблюдавшиеся в срок или в последний час перед сроком; фигурными скобками обозначены явления, наблюдавшиеся между сроками (за 1-3 часа до срока); квадратными скобками обозначены град или гололедные отложения с указанием их диаметра в мм.
Облачность - указаны через наклонную черту общая и нижняя облачность в баллах и высота нижней границы облаков в метрах; квадратными скобками обозначены формы облаков: Ci - перистые, Cs - перисто-слоистые, Cc - перисто-кучевые, Ac - высококучевые, As - высокослоистые, Sc - слоисто-кучевые, Ns - слоисто-дождевые, Cu - кучевые, Cb - кучево-дождевые. Подробнее классификацию облаков см. в Атласе облаков (PDF).
T - Температура воздуха - температура, измеренная на высоте 2 м над землей.
Td - Температура точки росы - температура, при понижении до которой содержащийся в воздухе водяной пар достигнет насыщения.
f - Относительная влажность воздуха - влажноcть воздуха, измеренная на высоте 2 м над землей.
Te - Эффективная температура - температура, которую ощущает одетый по сезону человек в тени. Характеристика душности погоды. При расчете учитывается влияние влажности воздуха и скорости ветра на теплоощущения человека.
Tes - Эффективная температура на солнце - температура, которую ощущает человек, с поправкой на солнечный нагрев. Характеристика знойности погоды. Зависит от высоты солнца над горизонтом, облачности и скорости ветра. Ночью, в пасмурную погоду, а также при ветре 12 м/с и более поправка равна нулю.
P - Атмосферное давление - приведенное к уровню моря атмосферное давление.
Po - Атмосферное давление - измеренное на уровне метеостанции атмосферное давление.
Tmin - Минимальная температура - минимум температуры воздуха на высоте 2 м над землей.
Tmax - Максимальная температура - максимум температуры воздуха на высоте 2 м над землей.
R - Количество осадков - Количество выпавших осадков за период времени, мм. При наведении курсора мыши на число - период времени, за который выпало указанное количество осадков.
R24 - Количество осадков - Количество выпавших осадков за 24 часа, мм.
S - Снежный покров - Высота снежного покрова, см. При наведении курсора мыши на число - состояние снежного покрова и степень покрытия местности в баллах.